Location: Hawks Ness
(60.2333°N, 1.1667°W)
Time: 11:24:23
(UTC+00:00)

Cosmos 1726 - Pass Details

Date: 30 January 2020
Orbit: 483 x 500 km, 82.5° (Epoch: 25 February)

Event Time Altitude Azimuth Distance (km) Brightness Sun altitude
Exits shadow 04:33:14 20° 32° (NNE) 1,178 4.4 -28.3°
Drops below altitude 10° 04:34:33 10° 23° (NNE) 1,682 5.2 -28.1°
Sets 04:36:42 0° 18° (NNE) 2,567 6.1 -27.9°
